| time (UTC) | temp F | wind direction | speed knots | gust knots | rain 1hr in | rain 24hr in | rain mn in | humidity % | barometer mb |
| 20260505082518 | 41 | 100 | 0.0 | 0.0 | 0.00 | 0.00 | 0.00 | 73 | |
| 20260505082015 | 42 | 108 | 0.0 | 0.0 | 0.00 | 0.00 | 0.00 | 71 | |
| 20260505081512 | 42 | 99 | 0.0 | 0.0 | 0.00 | 0.00 | 0.00 | 70 | |
| 20260505081009 | 43 | 93 | 0.0 | 1.7 | 0.00 | 0.00 | 0.00 | 69 | |
| 20260505080505 | 44 | 84 | 0.9 | 2.6 | 0.00 | 0.00 | 0.00 | 68 | |
| 20260505080001 | 44 | 19 | 1.7 | 3.5 | 0.00 | 0.00 | 0.00 | 68 | |
| 20260505075457 | 44 | 323 | 2.6 | 5.2 | 0.00 | 0.00 | 0.00 | 68 | |
| 20260505074955 | 44 | 272 | 4.3 | 5.2 | 0.00 | 0.00 | 0.00 | 68 | |
| 20260505074452 | 44 | 61 | 2.6 | 5.2 | 0.00 | 0.00 | 0.00 | 67 | |
| 20260505073949 | 44 | 303 | 2.6 | 2.6 | 0.00 | 0.00 | 0.00 | 67 | |
| 20260505073447 | 45 | 337 | 1.7 | 2.6 | 0.00 | 0.00 | 0.00 | 66 | |
| 20260505072944 | 45 | 353 | 2.6 | 5.2 | 0.00 | 0.00 | 0.00 | 66 | |
| 20260505072440 | 45 | 45 | 2.6 | 3.5 | 0.00 | 0.00 | 0.00 | 66 | |
| 20260505071936 | 45 | 334 | 1.7 | 3.5 | 0.00 | 0.00 | 0.00 | 66 | |
| 20260505071432 | 45 | 314 | 3.5 | 5.2 | 0.00 | 0.00 | 0.00 | 65 | |
| 20260505070930 | 45 | 313 | 1.7 | 3.5 | 0.00 | 0.00 | 0.00 | 66 | |
| 20260505070427 | 45 | 7 | 1.7 | 2.6 | 0.00 | 0.00 | 0.00 | 66 | |
| 20260505065922 | 45 | 86 | 0.9 | 2.6 | 0.00 | 0.00 | 0.00 | 66 | |
| 20260505065419 | 45 | 67 | 1.7 | 3.5 | 0.00 | 0.00 | 0.00 | 67 | |
| 20260505064916 | 45 | 309 | 1.7 | 3.5 | 0.00 | 0.00 | 0.00 | 67 | |
| 20260505064413 | 45 | 27 | 2.6 | 6.1 | 0.00 | 0.00 | 0.00 | 67 | |
| 20260505063912 | 45 | 295 | 3.5 | 7.0 | 0.00 | 0.00 | 0.00 | 67 | |
| 20260505063407 | 45 | 314 | 3.5 | 7.0 | 0.00 | 0.00 | 0.00 | 67 | |
| 20260505062904 | 45 | 56 | 1.7 | 8.7 | 0.00 | 0.00 | 0.00 | 67 | |
| 20260505062401 | 46 | 33 | 1.7 | 5.2 | 0.00 | 0.00 | 0.00 | 66 | |
| 20260505061858 | 45 | 24 | 2.6 | 7.8 | 0.00 | 0.00 | 0.00 | 67 | |
| 20260505061356 | 45 | 279 | 2.6 | 3.5 | 0.00 | 0.00 | 0.00 | 68 | |
| 20260505060853 | 46 | 296 | 3.5 | 8.7 | 0.00 | 0.00 | 0.00 | 68 | |
| 20260505060350 | 46 | 293 | 3.5 | 5.2 | 0.00 | 0.00 | 0.00 | 67 | |
| 20260505055846 | 46 | 83 | 1.7 | 5.2 | 0.00 | 0.00 | 0.00 | 67 | |
| 20260505055342 | 46 | 301 | 1.7 | 3.5 | 0.00 | 0.00 | 0.00 | 67 | |
| 20260505054840 | 46 | 35 | 3.5 | 6.1 | 0.00 | 0.00 | 0.00 | 66 | |
| 20260505054337 | 46 | 21 | 2.6 | 3.5 | 0.00 | 0.00 | 0.00 | 64 | |
| 20260505053835 | 47 | 354 | 1.7 | 3.5 | 0.00 | 0.00 | 0.00 | 63 | |
| 20260505053332 | 47 | 266 | 2.6 | 3.5 | 0.00 | 0.00 | 0.00 | 62 | |
| 20260505052828 | 47 | 92 | 0.0 | 1.7 | 0.00 | 0.00 | 0.00 | 62 | |
| 20260505052325 | 48 | 291 | 3.5 | 3.5 | 0.00 | 0.00 | 0.00 | 59 | |
| 20260505051822 | 48 | 11 | 1.7 | 3.5 | 0.00 | 0.00 | 0.00 | 54 | |
| 20260505051320 | 49 | 87 | 0.0 | 1.7 | 0.00 | 0.00 | 0.00 | 50 | |
| 20260505050818 | 49 | 71 | 0.9 | 3.5 | 0.00 | 0.00 | 0.00 | 49 | |
| 20260505050316 | 49 | 84 | 1.7 | 2.6 | 0.00 | 0.00 | 0.00 | 49 | |
| 20260505041746 | 47 | 41 | 1.7 | 1.7 | 0.00 | 0.00 | 0.00 | 60 | |
| 20260505041243 | 47 | 90 | 0.9 | 2.6 | 0.00 | 0.00 | 0.00 | 61 | |
| 20260505040740 | 47 | 282 | 1.7 | 2.6 | 0.00 | 0.00 | 0.00 | 61 | |
| 20260505040238 | 47 | 100 | 3.5 | 6.1 | 0.00 | 0.00 | 0.00 | 61 | |
| 20260505035735 | 48 | 346 | 3.5 | 5.2 | 0.00 | 0.00 | 0.00 | 61 | |
| 20260505035230 | 48 | 31 | 1.7 | 7.0 | 0.00 | 0.00 | 0.00 | 59 | |
| 20260505034727 | 48 | 307 | 2.6 | 3.5 | 0.00 | 0.00 | 0.00 | 60 | |
| 20260505034224 | 48 | 66 | 0.9 | 2.6 | 0.00 | 0.00 | 0.00 | 61 | |
| 20260505033721 | 47 | 12 | 3.5 | 5.2 | 0.00 | 0.00 | 0.00 | 61 | |
| 20260505033219 | 48 | 281 | 5.2 | 7.0 | 0.00 | 0.00 | 0.00 | 64 | |
| 20260505032717 | 48 | 271 | 4.3 | 6.1 | 0.00 | 0.00 | 0.00 | 62 | |
| 20260505032212 | 47 | 189 | 1.7 | 1.7 | 0.00 | 0.00 | 0.00 | 63 | |
| 20260505031710 | 47 | 36 | 1.7 | 1.7 | 0.00 | 0.00 | 0.00 | 64 | |
| 20260505031206 | 47 | 94 | 1.7 | 1.7 | 0.00 | 0.00 | 0.00 | 64 | |
| 20260505030703 | 47 | 45 | 2.6 | 3.5 | 0.00 | 0.00 | 0.00 | 64 | |
| 20260505030159 | 48 | 279 | 2.6 | 3.5 | 0.00 | 0.00 | 0.00 | 60 | |
| 20260505025655 | 49 | 210 | 0.9 | 2.6 | 0.00 | 0.00 | 0.00 | 60 | |
| 20260505025153 | 48 | 67 | 0.9 | 1.7 | 0.00 | 0.00 | 0.00 | 59 | |
| 20260505024651 | 48 | 240 | 1.7 | 5.2 | 0.00 | 0.00 | 0.00 | 62 | |
| 20260505024147 | 48 | 317 | 3.5 | 3.5 | 0.00 | 0.00 | 0.00 | 60 | |
| 20260505023645 | 48 | 13 | 1.7 | 7.0 | 0.00 | 0.00 | 0.00 | 61 | |
| 20260505023143 | 48 | 33 | 2.6 | 5.2 | 0.00 | 0.00 | 0.00 | 62 | |
| 20260505022640 | 48 | 354 | 3.5 | 5.2 | 0.00 | 0.00 | 0.00 | 62 | |
| 20260505022137 | 48 | 77 | 1.7 | 2.6 | 0.00 | 0.00 | 0.00 | 61 | |
| 20260505021633 | 49 | 67 | 1.7 | 2.6 | 0.00 | 0.00 | 0.00 | 60 | |
| 20260505021130 | 49 | 30 | 1.7 | 3.5 | 0.00 | 0.00 | 0.00 | 58 | |
| 20260505020626 | 49 | 88 | 0.0 | 0.9 | 0.00 | 0.00 | 0.00 | 56 | |
| 20260505020122 | 49 | 305 | 1.7 | 1.7 | 0.00 | 0.00 | 0.00 | 56 | |
| 20260505015619 | 49 | 81 | 0.9 | 2.6 | 0.00 | 0.00 | 0.00 | 58 | |
| 20260505015116 | 50 | 75 | 0.9 | 1.7 | 0.00 | 0.00 | 0.00 | 56 | |
| 20260505014613 | 50 | 79 | 0.9 | 3.5 | 0.00 | 0.00 | 0.00 | 56 | |
| 20260505014110 | 50 | 352 | 0.9 | 1.7 | 0.00 | 0.00 | 0.00 | 55 | |
| 20260505013607 | 50 | 336 | 1.7 | 2.6 | 0.00 | 0.00 | 0.00 | 53 | |
| 20260505013104 | 50 | 94 | 1.7 | 2.6 | 0.00 | 0.00 | 0.00 | 53 | |
| 20260505012602 | 51 | 297 | 3.5 | 6.1 | 0.00 | 0.00 | 0.00 | 51 | |
| 20260505012059 | 51 | 78 | 1.7 | 1.7 | 0.00 | 0.00 | 0.00 | 47 | |
| 20260505011554 | 52 | 68 | 0.0 | 0.9 | 0.00 | 0.00 | 0.00 | 46 | |
| 20260505011052 | 52 | 107 | 1.7 | 1.7 | 0.00 | 0.00 | 0.00 | 46 | |
| 20260505010547 | 52 | 3 | 3.5 | 5.2 | 0.00 | 0.00 | 0.00 | 46 | |
| 20260505010044 | 52 | 92 | 0.0 | 0.9 | 0.00 | 0.00 | 0.00 | 47 | |
| 20260505005540 | 52 | 341 | 0.9 | 1.7 | 0.00 | 0.00 | 0.00 | 46 | |
| 20260505005038 | 52 | 328 | 5.2 | 7.0 | 0.00 | 0.00 | 0.00 | 45 | |
| 20260505004535 | 52 | 113 | 0.9 | 1.7 | 0.00 | 0.00 | 0.00 | 46 | |
| 20260505004032 | 52 | 85 | 0.0 | 1.7 | 0.00 | 0.00 | 0.00 | 47 | |
| 20260505003529 | 52 | 356 | 2.6 | 2.6 | 0.00 | 0.00 | 0.00 | 47 | |
| 20260505003026 | 52 | 316 | 1.7 | 2.6 | 0.00 | 0.00 | 0.00 | 47 | |
| 20260505002521 | 52 | 95 | 0.0 | 1.7 | 0.00 | 0.00 | 0.00 | 48 | |
| 20260505002020 | 52 | 132 | 2.6 | 6.1 | 0.00 | 0.00 | 0.00 | 47 | |
| 20260505001517 | 52 | 273 | 4.3 | 5.2 | 0.00 | 0.00 | 0.00 | 47 | |
| 20260505001014 | 52 | 112 | 0.0 | 2.6 | 0.00 | 0.00 | 0.00 | 47 | |
| 20260505000512 | 52 | 127 | 0.0 | 1.7 | 0.00 | 0.00 | 0.00 | 47 | |
| 20260505000009 | 52 | 2 | 3.5 | 6.1 | 0.00 | 0.00 | 0.00 | 48 | |
| 20260504235505 | 53 | 66 | 3.5 | 6.1 | 0.00 | 0.00 | 0.00 | 48 | |
| 20260504235002 | 53 | 94 | 0.9 | 2.6 | 0.00 | 0.00 | 0.00 | 48 | |
| 20260504234459 | 52 | 149 | 0.9 | 1.7 | 0.00 | 0.00 | 0.00 | 48 | |
| 20260504233956 | 51 | 83 | 1.7 | 7.0 | 0.00 | 0.00 | 0.00 | 52 | |
| 20260504233451 | 50 | 124 | 1.7 | 2.6 | 0.00 | 0.00 | 0.00 | 57 | |
| 20260504232949 | 50 | 98 | 2.6 | 5.2 | 0.00 | 0.00 | 0.00 | 59 | |
| 20260504232446 | 50 | 93 | 0.9 | 2.6 | 0.00 | 0.00 | 0.00 | 60 | |
| 20260504231943 | 50 | 97 | 0.9 | 3.5 | 0.00 | 0.00 | 0.00 | 60 | |
| 20260504231439 | 49 | 346 | 1.7 | 6.1 | 0.00 | 0.00 | 0.00 | 63 | |
| 20260504230935 | 48 | 79 | 0.9 | 3.5 | 0.00 | 0.00 | 0.00 | 64 | |
| 20260504230432 | 49 | 34 | 5.2 | 7.8 | 0.00 | 0.00 | 0.00 | 63 | |
| 20260504225932 | 51 | 72 | 3.5 | 7.8 | 0.00 | 0.00 | 0.00 | 61 | |
| 20260504225428 | 53 | 60 | 4.3 | 7.0 | 0.00 | 0.00 | 0.00 | 49 | |
| 20260504224925 | 55 | 135 | 3.5 | 11.3 | 0.00 | 0.00 | 0.00 | 44 | |
| 20260504224422 | 56 | 345 | 2.6 | 5.2 | 0.00 | 0.00 | 0.00 | 42 | |
| 20260504223919 | 57 | 93 | 0.9 | 1.7 | 0.00 | 0.00 | 0.00 | 41 | |
| 20260504223414 | 57 | 90 | 0.0 | 0.9 | 0.00 | 0.00 | 0.00 | 43 | |
| 20260504222910 | 56 | 102 | 0.0 | 0.9 | 0.00 | 0.00 | 0.00 | 47 | |
| 20260504222408 | 56 | 292 | 1.7 | 3.5 | 0.00 | 0.00 | 0.00 | 47 | |
| 20260504221906 | 55 | 51 | 0.9 | 2.6 | 0.00 | 0.00 | 0.00 | 47 | |
| 20260504221402 | 54 | 356 | 2.6 | 3.5 | 0.00 | 0.00 | 0.00 | 50 | |
| 20260504220859 | 54 | 99 | 0.0 | 0.9 | 0.00 | 0.00 | 0.00 | 50 | |
| 20260504220356 | 54 | 295 | 5.2 | 8.7 | 0.00 | 0.00 | 0.00 | 51 | |
| 20260504215853 | 54 | 148 | 1.7 | 7.0 | 0.00 | 0.00 | 0.00 | 50 | |
| 20260504215349 | 53 | 137 | 0.9 | 2.6 | 0.00 | 0.00 | 0.00 | 52 | |
| 20260504214846 | 52 | 333 | 5.2 | 7.8 | 0.00 | 0.00 | 0.00 | 52 | |
| 20260504214343 | 52 | 213 | 1.7 | 2.6 | 0.00 | 0.00 | 0.00 | 54 | |
| 20260504213839 | 52 | 109 | 2.6 | 6.1 | 0.00 | 0.00 | 0.00 | 53 | |
| 20260504213335 | 54 | 160 | 1.7 | 7.0 | 0.00 | 0.00 | 0.00 | 53 | |
| 20260504212833 | 57 | 110 | 0.9 | 7.0 | 0.00 | 0.00 | 0.00 | 45 | |
| 20260504212328 | 57 | 123 | 0.0 | 2.6 | 0.00 | 0.00 | 0.00 | 45 | |
| 20260504211827 | 57 | 111 | 0.9 | 2.6 | 0.00 | 0.00 | 0.00 | 45 | |
| 20260504211328 | 57 | 142 | 2.6 | 5.2 | 0.00 | 0.00 | 0.00 | 46 | |
| 20260504210825 | 55 | 23 | 2.6 | 3.5 | 0.00 | 0.00 | 0.00 | 48 | |
| 20260504210322 | 55 | 304 | 3.5 | 5.2 | 0.00 | 0.00 | 0.00 | 50 | |
| 20260504205820 | 56 | 62 | 0.0 | 2.6 | 0.00 | 0.00 | 0.00 | 51 | |
| 20260504205317 | 54 | 100 | 0.0 | 1.7 | 0.00 | 0.00 | 0.00 | 53 | |
| 20260504204815 | 53 | 107 | 0.0 | 2.6 | 0.00 | 0.00 | 0.00 | 55 | |
| 20260504204313 | 52 | 132 | 3.5 | 6.1 | 0.00 | 0.00 | 0.00 | 58 | |
| 20260504203812 | 51 | 108 | 0.9 | 3.5 | 0.00 | 0.00 | 0.00 | 56 | |
| 20260504203309 | 51 | 117 | 1.7 | 5.2 | 0.00 | 0.00 | 0.00 | 54 | |
| 20260504202804 | 51 | 102 | 1.7 | 7.8 | 0.00 | 0.00 | 0.00 | 58 | |
| 20260504202302 | 52 | 352 | 1.7 | 7.0 | 0.00 | 0.00 | 0.00 | 57 | |
| 20260504201758 | 52 | 243 | 1.7 | 7.0 | 0.00 | 0.00 | 0.00 | 52 | |
| 20260504201256 | 53 | 341 | 3.5 | 9.6 | 0.00 | 0.00 | 0.00 | 53 | |
| 20260504200754 | 56 | 83 | 3.5 | 7.8 | 0.00 | 0.00 | 0.00 | 44 | |
| 20260504200249 | 56 | 317 | 6.1 | 13.0 | 0.00 | 0.00 | 0.00 | 40 | |
| 20260504195746 | 60 | 333 | 2.6 | 12.2 | 0.00 | 0.00 | 0.00 | 34 | |
| 20260504195241 | 63 | 343 | 1.7 | 3.5 | 0.00 | 0.00 | 0.00 | 29 | |
| 20260504194739 | 62 | 11 | 0.9 | 1.7 | 0.00 | 0.00 | 0.00 | 31 | |
| 20260504194235 | 64 | 56 | 0.9 | 7.8 | 0.00 | 0.00 | 0.00 | 28 | |
| 20260504193731 | 63 | 131 | 1.7 | 6.1 | 0.00 | 0.00 | 0.00 | 31 | |
| 20260504193229 | 65 | 330 | 3.5 | 6.1 | 0.00 | 0.00 | 0.00 | 30 | |
| 20260504192727 | 66 | 163 | 3.5 | 3.5 | 0.00 | 0.00 | 0.00 | 29 | |
| 20260504192225 | 65 | 86 | 0.9 | 5.2 | 0.00 | 0.00 | 0.00 | 31 | |
| 20260504191723 | 65 | 112 | 2.6 | 7.0 | 0.00 | 0.00 | 0.00 | 30 | |
| 20260504191220 | 64 | 174 | 2.6 | 3.5 | 0.00 | 0.00 | 0.00 | 32 | |
| 20260504190715 | 64 | 107 | 1.7 | 7.8 | 0.00 | 0.00 | 0.00 | 33 | |
| 20260504190212 | 60 | 113 | 0.9 | 2.6 | 0.00 | 0.00 | 0.00 | 36 | |
| 20260504185708 | 58 | 216 | 0.9 | 6.1 | 0.00 | 0.00 | 0.00 | 39 | |
| 20260504185205 | 58 | 156 | 2.6 | 5.2 | 0.00 | 0.00 | 0.00 | 41 | |
| 20260504184701 | 57 | 109 | 0.9 | 2.6 | 0.00 | 0.00 | 0.00 | 44 | |
| 20260504184156 | 55 | 191 | 1.7 | 3.5 | 0.00 | 0.00 | 0.00 | 48 | |
| 20260504183653 | 51 | 114 | 1.7 | 3.5 | 0.00 | 0.00 | 0.00 | 55 | |
| 20260504183150 | 50 | 124 | 0.9 | 7.8 | 0.00 | 0.00 | 0.00 | 57 | |
| 20260504182648 | 50 | 143 | 3.5 | 7.0 | 0.00 | 0.00 | 0.00 | 56 | |
| 20260504182145 | 51 | 141 | 3.5 | 7.0 | 0.00 | 0.00 | 0.00 | 52 | |
| 20260504181643 | 53 | 113 | 0.9 | 8.7 | 0.00 | 0.00 | 0.00 | 47 | |
| 20260504181140 | 55 | 131 | 3.5 | 7.0 | 0.00 | 0.00 | 0.00 | 43 | |
| 20260504180640 | 57 | 119 | 2.6 | 6.1 | 0.00 | 0.00 | 0.00 | 38 | |
| 20260504180138 | 57 | 102 | 0.9 | 0.9 | 0.00 | 0.00 | 0.00 | 34 | |
| 20260504175635 | 58 | 331 | 1.7 | 1.7 | 0.00 | 0.00 | 0.00 | 33 | |
| 20260504175131 | 57 | 260 | 0.9 | 3.5 | 0.00 | 0.00 | 0.00 | 34 | |
| 20260504174630 | 57 | 84 | 3.5 | 6.1 | 0.00 | 0.00 | 0.00 | 34 | |
| 20260504174125 | 57 | 92 | 0.0 | 2.6 | 0.00 | 0.00 | 0.00 | 34 | |
| 20260504173623 | 58 | 91 | 1.7 | 2.6 | 0.00 | 0.00 | 0.00 | 35 | |
| 20260504173120 | 57 | 82 | 1.7 | 2.6 | 0.00 | 0.00 | 0.00 | 36 | |
| 20260504172617 | 57 | 32 | 1.7 | 7.0 | 0.00 | 0.00 | 0.00 | 35 | |
| 20260504172113 | 57 | 136 | 0.9 | 1.7 | 0.00 | 0.00 | 0.00 | 35 | |
| 20260504171609 | 57 | 347 | 1.7 | 5.2 | 0.00 | 0.00 | 0.00 | 34 | |
| 20260504171107 | 58 | 85 | 0.0 | 2.6 | 0.00 | 0.00 | 0.00 | 35 | |
| 20260504170602 | 58 | 26 | 0.9 | 1.7 | 0.00 | 0.00 | 0.00 | 36 | |
| 20260504150947 | 51 | 105 | 2.6 | 2.6 | 0.00 | 0.00 | 0.00 | 47 | |
| 20260504150443 | 51 | 73 | 0.9 | 2.6 | 0.00 | 0.00 | 0.00 | 48 | |
| 20260504140910 | 46 | 91 | 0.9 | 2.6 | 0.00 | 0.00 | 0.00 | 60 | |
| 20260504140405 | 47 | 310 | 4.3 | 6.1 | 0.00 | 0.00 | 0.00 | 56 | |
| 20260504130331 | 42 | 159 | 0.9 | 2.6 | 0.00 | 0.00 | 0.00 | 53 | |
| 20260504120254 | 38 | 79 | 0.0 | 0.0 | 0.00 | 0.00 | 0.00 | 60 | |
| 20260504110218 | 36 | 93 | 0.0 | 1.7 | 0.00 | 0.00 | 0.00 | 68 | |
| 20260504100136 | 36 | 92 | 0.0 | 0.0 | 0.00 | 0.00 | 0.00 | 70 |